Weather in Kruglolesskoye

Russia / Stavropol Krai     44°39′29″N   42°49′00″E
temp.,
°C
wind,
m/s
gust,
m/s
humid.,
%
clouds,
%
prec.,
mm/h
press.,
hPa
HPBL,
m
25 october, mon
mon2500:00+8nnw6891100 1.8 1020632
03:00+4nnw5995100 4.9 1023584
06:00+2wnw3698100 3.7 1025355
09:00+3wnw4796100 4.6 1027539
12:00+3w3696100 0.3 1028466
15:00+5w578295 0.4 1029661
18:00+5wsw3587100 0.3 1031617
21:00+3wsw249146 0.4 103190
26 october, tue
tue2600:00+3wnw118766 0.0 103122
03:00+2nnw118336 0.0 103211
06:00+2ene117935 0.0 103211
09:00+4ene116634 0.0 1033273
12:00+7ene11526 0.0 10321182
15:00+8e22475 0.0 10301147
18:00+4e36593 0.0 1031118
21:00+3e39593 0.0 1031226
27 october, wed
wed2700:00+2e410621 0.0 1031270
03:00+1ese411700 0.0 1030291
06:00+1ese513720 0.0 1030345
09:00+4ese714620 0.0 1029542
12:00+8ese912450 0.0 1027720
15:00+9ese811400 0.0 1026775
18:00+6ese713530 0.0 1027484
21:00+5ese614620 0.0 1026411
28 october, thu
thu2800:00+3ese412790 0.0 1026310
03:00+1ese33930 0.0 102667
06:00+1se22951 0.0 102634
09:00+5se23750 0.0 1026218
12:00+11se11500 0.0 1025512
15:00+13s01410 0.0 1023759
18:00+8e11580 0.0 102410
21:00+6s11690 0.0 102410
29 october, fri
fri2900:00+5w11700 0.0 102410
03:00+4w1174100 0.0 102511
06:00+4w1174100 0.0 102612
09:00+7wnw226097 0.0 1026179
12:00+11nw234529 0.0 1025663
15:00+12nnw33445 0.0 1024851
18:00+8nne11615 0.0 102610
21:00+7ene11690 0.0 102610